Location: Kutna Hora
(49.9500°N, 15.2670°E)
Time: 06:33:48
(UTC+02:00)

ISS - Pass Details

Date: 26 March 2019
Orbit: 408 x 410 km, 51.6° (Epoch: 23 April)

Event Time Altitude Azimuth Distance (km) Brightness Sun altitude
Rises 20:59:18 0° 274° (W) 2,336 0.9 -24.4°
Reaches altitude 10° 21:01:24 10° 278° (W) 1,474 -0.2 -24.6°
Enters shadow 21:03:18 31° 289° (WNW) 752 -2.0 -24.9°
